When you browse on this site, cookies collect data to enhance your experience and personalize the content and advertising you see.
Visit our Privacy Policy to learn more. By continuing to use the site, you agree to this use of cookies and data.
  • In Hungary
  • List of Countries
  • For 7 days
  • Water Temperature
  • Satellite Maps
  • Weather Map
  • News
  • Weather Widgets
  • user-avatar
    Login

    Hourly Weather San Luis

    Today, 19 April, Friday

    Time Temperature Precipitation Wind Pressure Humidity
    00:00 +20°C° 0 mm 2 mps 696 mmHg 61%
    01:00 +20°C° 0 mm 2 mps 696 mmHg 64%
    02:00 +20°C° 0 mm 2 mps 696 mmHg 67%
    03:00 +20°C° 0 mm 2 mps 696 mmHg 70%
    04:00 +19°C° 0 mm 2 mps 696 mmHg 73%
    05:00 +19°C° 0 mm 2 mps 696 mmHg 76%
    06:00 +20°C° 0 mm 2 mps 696 mmHg 73%
    07:00 +21°C° 0 mm 2 mps 697 mmHg 70%
    08:00 +22°C° 0 mm 1 mps 697 mmHg 67%
    09:00 +24°C° 0 mm 1 mps 698 mmHg 59%
    10:00 +26°C° 0 mm 1 mps 698 mmHg 51%
    11:00 +27°C° 0 mm 1 mps 698 mmHg 43%
    12:00 +28°C° 0 mm 1 mps 698 mmHg 40%
    13:00 +29°C° 0 mm 1 mps 697 mmHg 37%
    14:00 +30°C° 0 mm 1 mps 697 mmHg 35%
    15:00 +29°C° 0 mm 2 mps 697 mmHg 35%
    16:00 +29°C° 0 mm 2 mps 696 mmHg 36%
    17:00 +29°C° 0 mm 3 mps 696 mmHg 37%
    18:00 +27°C° 0 mm 3 mps 696 mmHg 43%
    19:00 +25°C° 0 mm 4 mps 696 mmHg 48%
    20:00 +23°C° 0 mm 4 mps 697 mmHg 53%
    21:00 +22°C° 0 mm 5 mps 697 mmHg 56%
    22:00 +22°C° 0 mm 5 mps 697 mmHg 58%
    23:00 +22°C° 0 mm 6 mps 698 mmHg 61%

    Tomorrow, 20 April, Saturday

    Time Temperature Precipitation Wind Pressure Humidity
    00:00 +22°C° 0 mm 5 mps 698 mmHg 63%
    01:00 +21°C° 0 mm 4 mps 698 mmHg 65%
    02:00 +21°C° 0 mm 4 mps 698 mmHg 67%
    03:00 +20°C° 0.2 mm 4 mps 698 mmHg 71%
    04:00 +20°C° 0.2 mm 4 mps 698 mmHg 75%
    05:00 +19°C° 0.2 mm 4 mps 698 mmHg 79%
    06:00 +19°C° 0.2 mm 5 mps 698 mmHg 78%
    07:00 +19°C° 0.2 mm 6 mps 698 mmHg 77%
    08:00 +19°C° 0.2 mm 6 mps 699 mmHg 76%
    09:00 +21°C° 0.3 mm 6 mps 699 mmHg 69%
    10:00 +23°C° 0.3 mm 6 mps 700 mmHg 61%
    11:00 +26°C° 0.3 mm 6 mps 700 mmHg 54%
    12:00 +26°C° 0.7 mm 6 mps 700 mmHg 54%
    13:00 +26°C° 0.7 mm 6 mps 699 mmHg 54%
    14:00 +26°C° 0.7 mm 6 mps 698 mmHg 53%
    15:00 +24°C° 0.2 mm 7 mps 698 mmHg 56%
    16:00 +23°C° 0.2 mm 7 mps 698 mmHg 58%
    17:00 +22°C° 0.2 mm 8 mps 698 mmHg 61%
    18:00 +21°C° 0.2 mm 8 mps 698 mmHg 66%
    19:00 +18°C° 0.2 mm 8 mps 698 mmHg 71%
    20:00 +16°C° 0.2 mm 8 mps 698 mmHg 76%
    21:00 +16°C° 0.1 mm 8 mps 699 mmHg 75%
    22:00 +16°C° 0.1 mm 7 mps 699 mmHg 75%
    23:00 +16°C° 0.1 mm 7 mps 699 mmHg 74%

    Day after tomorrow, 21 April, Sunday

    Time Temperature Precipitation Wind Pressure Humidity
    00:00 +15°C° 0 mm 7 mps 699 mmHg 75%
    01:00 +15°C° 0 mm 6 mps 699 mmHg 75%
    02:00 +15°C° 0 mm 6 mps 699 mmHg 75%
    03:00 +15°C° 0.1 mm 6 mps 699 mmHg 76%
    04:00 +14°C° 0.1 mm 6 mps 699 mmHg 78%
    05:00 +14°C° 0.1 mm 6 mps 699 mmHg 79%
    06:00 +14°C° 0.1 mm 7 mps 699 mmHg 76%
    07:00 +14°C° 0.1 mm 7 mps 700 mmHg 74%
    08:00 +13°C° 0.1 mm 8 mps 700 mmHg 72%
    09:00 +16°C° 0.1 mm 8 mps 701 mmHg 66%
    10:00 +17°C° 0.1 mm 8 mps 701 mmHg 60%
    11:00 +19°C° 0.1 mm 9 mps 702 mmHg 54%
    12:00 +20°C° 0 mm 8 mps 701 mmHg 51%
    13:00 +21°C° 0 mm 8 mps 701 mmHg 48%
    14:00 +22°C° 0 mm 8 mps 701 mmHg 46%
    15:00 +21°C° 0 mm 8 mps 701 mmHg 46%
    16:00 +20°C° 0 mm 8 mps 700 mmHg 46%
    17:00 +18°C° 0 mm 8 mps 700 mmHg 46%
    18:00 +17°C° 0 mm 7 mps 700 mmHg 52%
    19:00 +15°C° 0 mm 6 mps 701 mmHg 58%
    20:00 +14°C° 0 mm 6 mps 701 mmHg 63%
    21:00 +13°C° 0 mm 5 mps 701 mmHg 63%
    22:00 +13°C° 0 mm 5 mps 701 mmHg 63%
    23:00 +13°C° 0 mm 4 mps 702 mmHg 63%

    22 April, Monday

    Time Temperature Precipitation Wind Pressure Humidity
    00:00 +13°C° 0 mm 4 mps 702 mmHg 64%
    01:00 +13°C° 0 mm 4 mps 701 mmHg 65%
    02:00 +13°C° 0 mm 3 mps 701 mmHg 66%
    03:00 +13°C° 0 mm 3 mps 701 mmHg 69%
    04:00 +14°C° 0 mm 2 mps 701 mmHg 72%
    05:00 +13°C° 0 mm 2 mps 701 mmHg 75%
    06:00 +14°C° 0 mm 2 mps 701 mmHg 73%
    07:00 +15°C° 0 mm 2 mps 701 mmHg 71%
    08:00 +16°C° 0 mm 2 mps 702 mmHg 70%
    09:00 +17°C° 0 mm 2 mps 702 mmHg 65%
    10:00 +19°C° 0 mm 2 mps 702 mmHg 60%
    11:00 +20°C° 0 mm 3 mps 702 mmHg 55%
    12:00 +21°C° 0.1 mm 3 mps 702 mmHg 53%
    13:00 +22°C° 0.1 mm 3 mps 701 mmHg 50%
    14:00 +22°C° 0.1 mm 3 mps 701 mmHg 48%
    15:00 +22°C° 0.1 mm 3 mps 700 mmHg 48%
    16:00 +23°C° 0.1 mm 2 mps 700 mmHg 48%
    17:00 +21°C° 0.1 mm 2 mps 700 mmHg 48%
    18:00 +20°C° 0 mm 2 mps 700 mmHg 54%
    19:00 +18°C° 0 mm 3 mps 700 mmHg 60%
    20:00 +17°C° 0 mm 3 mps 700 mmHg 65%
    21:00 +16°C° 0 mm 3 mps 700 mmHg 69%
    22:00 +15°C° 0 mm 4 mps 700 mmHg 72%
    23:00 +15°C° 0 mm 4 mps 700 mmHg 75%

    23 April, Tuesday

    Time Temperature Precipitation Wind Pressure Humidity
    00:00 +15°C° 0 mm 4 mps 700 mmHg 74%
    01:00 +14°C° 0 mm 5 mps 700 mmHg 72%
    02:00 +14°C° 0 mm 6 mps 700 mmHg 70%
    03:00 +14°C° 0 mm 6 mps 700 mmHg 68%
    04:00 +14°C° 0 mm 6 mps 700 mmHg 66%
    05:00 +13°C° 0 mm 6 mps 699 mmHg 63%
    06:00 +14°C° 0 mm 6 mps 700 mmHg 61%
    07:00 +14°C° 0 mm 6 mps 700 mmHg 59%
    08:00 +15°C° 0 mm 6 mps 701 mmHg 57%
    09:00 +17°C° 0 mm 6 mps 701 mmHg 51%
    10:00 +20°C° 0 mm 6 mps 701 mmHg 45%
    11:00 +22°C° 0 mm 6 mps 702 mmHg 38%
    12:00 +23°C° 0 mm 6 mps 701 mmHg 38%
    13:00 +23°C° 0 mm 5 mps 701 mmHg 37%
    14:00 +25°C° 0 mm 4 mps 700 mmHg 37%
    15:00 +23°C° 0 mm 4 mps 700 mmHg 39%
    16:00 +24°C° 0 mm 3 mps 700 mmHg 42%
    17:00 +23°C° 0 mm 2 mps 700 mmHg 45%
    18:00 +21°C° 0 mm 2 mps 700 mmHg 50%
    19:00 +19°C° 0 mm 2 mps 700 mmHg 56%
    20:00 +18°C° 0 mm 2 mps 701 mmHg 61%
    21:00 +18°C° 0 mm 2 mps 701 mmHg 62%
    22:00 +17°C° 0 mm 2 mps 701 mmHg 63%
    23:00 +17°C° 0 mm 3 mps 701 mmHg 64%

    24 April, Wednesday

    Time Temperature Precipitation Wind Pressure Humidity
    00:00 +17°C° 0 mm 3 mps 701 mmHg 65%
    01:00 +17°C° 0 mm 4 mps 701 mmHg 66%
    02:00 +15°C° 0 mm 4 mps 701 mmHg 67%
    03:00 +15°C° 0 mm 4 mps 701 mmHg 67%
    04:00 +15°C° 0 mm 4 mps 701 mmHg 66%
    05:00 +14°C° 0 mm 4 mps 700 mmHg 66%
    06:00 +15°C° 0 mm 4 mps 701 mmHg 64%
    07:00 +15°C° 0 mm 5 mps 701 mmHg 62%
    08:00 +15°C° 0 mm 5 mps 702 mmHg 60%
    09:00 +17°C° 0 mm 5 mps 702 mmHg 55%
    10:00 +20°C° 0 mm 6 mps 702 mmHg 50%
    11:00 +21°C° 0 mm 6 mps 702 mmHg 45%
    12:00 +22°C° 0 mm 5 mps 702 mmHg 44%
    13:00 +22°C° 0 mm 5 mps 701 mmHg 43%
    14:00 +23°C° 0 mm 4 mps 700 mmHg 43%
    15:00 +22°C° 0 mm 4 mps 700 mmHg 44%
    16:00 +22°C° 0 mm 3 mps 700 mmHg 45%
    17:00 +23°C° 0 mm 2 mps 700 mmHg 45%
    18:00 +20°C° 0 mm 2 mps 700 mmHg 52%
    19:00 +18°C° 0 mm 2 mps 700 mmHg 59%
    20:00 +17°C° 0 mm 2 mps 700 mmHg 65%
    21:00 +16°C° 0 mm 3 mps 700 mmHg 67%
    22:00 +16°C° 0 mm 3 mps 700 mmHg 68%
    23:00 +16°C° 0 mm 3 mps 700 mmHg 69%
    Show more